EW1953 Weather Reports


Display with metric or nautical units.
time (UTC)temp
F
wind
direction
speed
MPH
gust
MPH
rain 1hr
in
rain 24hr
in
rain mn
in
humidity
%
barometer
mb
20200226134206 41 184 4.0 10.0 0.00 0.33 0.17 85 1002.2
20200226133710 42 157 4.0 9.0 0.00 0.33 0.17 85 1002.0
20200226133209 42 166 5.0 10.0 0.00 0.33 0.17 86 1002.0
20200226132706 42 167 5.0 10.0 0.00 0.34 0.17 87 1001.9
20200226132207 42 169 4.0 10.0 0.00 0.34 0.17 86 1001.8
20200226131707 42 140 3.0 9.0 0.00 0.34 0.17 87 1001.8
20200226131206 41 130 3.0 13.0 0.00 0.34 0.17 88 1001.8
20200226130706 41 44 4.0 13.0 0.00 0.34 0.17 88 1001.7
20200226130206 41 84 5.0 11.0 0.00 0.34 0.17 88 1001.6
20200226125706 41 0 4.0 10.0 0.00 0.34 0.17 88 1001.6
20200226125207 41 98 4.0 10.0 0.00 0.34 0.17 88 1001.5
20200226124706 41 289 4.0 12.0 0.00 0.34 0.17 87 1001.4
20200226124206 41 213 5.0 12.0 0.00 0.34 0.17 86 1001.5
20200226123717 41 231 6.0 12.0 0.00 0.34 0.17 86 1001.3
20200226123207 42 157 5.0 11.0 0.00 0.34 0.17 85 1001.3
20200226122707 42 188 5.0 13.0 0.00 0.34 0.17 87 1001.1
20200226122213 42 199 5.0 13.0 0.00 0.34 0.17 88 1001.1
20200226121706 42 144 5.0 13.0 0.00 0.34 0.17 87 1001.1
20200226121206 42 121 5.0 13.0 0.00 0.34 0.17 87 1001.0
20200226120706 41 186 5.0 13.0 0.00 0.34 0.17 90 1000.9
20200226120209 40 5 4.0 11.0 0.00 0.34 0.17 90 1000.9
20200226115706 40 126 4.0 13.0 0.00 0.34 0.17 90 1000.9
20200226115207 40 234 4.0 13.0 0.01 0.34 0.17 90 1000.9
20200226114706 40 169 3.0 13.0 0.01 0.34 0.17 91 1000.8
20200226114207 40 198 3.0 13.0 0.01 0.34 0.17 91 1000.8
20200226113705 40 196 4.0 13.0 0.01 0.34 0.17 91 1000.8
20200226113212 40 211 4.0 10.0 0.01 0.34 0.17 91 1000.7
20200226112707 40 158 3.0 10.0 0.01 0.34 0.17 91 1000.6
20200226112211 40 163 3.0 10.0 0.01 0.34 0.17 92 1000.5
20200226111706 39 88 4.0 14.0 0.01 0.34 0.17 92 1000.5
20200226111206 39 21 5.0 14.0 0.01 0.34 0.17 91 1000.5
20200226110712 39 90 6.0 12.0 0.01 0.34 0.17 91 1000.3
20200226110206 39 149 5.0 12.0 0.01 0.34 0.17 91 1000.3
20200226105707 39 195 4.0 11.0 0.00 0.33 0.16 91 1000.2
20200226105209 39 157 4.0 12.0 0.00 0.33 0.16 91 1000.1
20200226104706 39 220 4.0 12.0 0.00 0.33 0.16 90 1000.0
20200226104206 39 244 5.0 12.0 0.00 0.33 0.16 91 999.9
20200226103706 39 155 5.0 12.0 0.00 0.33 0.16 90 999.8
20200226103208 39 197 5.0 10.0 0.00 0.33 0.16 91 999.7
20200226102706 39 184 5.0 10.0 0.00 0.33 0.16 92 999.7
20200226102207 39 210 4.0 10.0 0.00 0.33 0.16 93 999.5
20200226101707 39 136 4.0 10.0 0.00 0.33 0.16 93 999.5
20200226101208 38 172 4.0 10.0 0.00 0.33 0.16 94 999.4
20200226100706 38 195 4.0 10.0 0.00 0.33 0.16 94 999.4
20200226100206 38 211 4.0 13.0 0.00 0.33 0.16 94 999.3
20200226095708 38 179 4.0 13.0 0.01 0.33 0.16 94 999.2
20200226095234 38 221 5.0 13.0 0.01 0.33 0.16 94 999.2
20200226094706 38 221 4.0 9.0 0.01 0.33 0.16 95 999.2
20200226094210 38 205 4.0 9.0 0.02 0.33 0.16 95 999.1
20200226093713 37 155 4.0 8.0 0.02 0.33 0.16 95 999.0
20200226093212 37 161 3.0 10.0 0.02 0.33 0.16 95 998.8
20200226092705 37 166 4.0 10.0 0.02 0.33 0.16 95 998.8
20200226092206 37 149 4.0 10.0 0.02 0.33 0.16 95 998.7
20200226091706 37 315 4.0 9.0 0.03 0.33 0.16 95 998.6
20200226091215 37 151 3.0 9.0 0.03 0.33 0.16 96 998.5
20200226090712 37 218 4.0 10.0 0.03 0.33 0.16 96 998.4
20200226090206 36 165 4.0 10.0 0.04 0.33 0.16 96 998.4
20200226085706 36 143 4.0 10.0 0.03 0.32 0.15 96 998.2
20200226085206 36 187 4.0 10.0 0.04 0.32 0.15 96 998.1
20200226084707 36 141 4.0 10.0 0.03 0.31 0.14 96 998.0
20200226084207 35 216 3.0 7.0 0.04 0.31 0.14 97 998.0
20200226083727 35 169 3.0 6.0 0.04 0.31 0.14 97 997.8
20200226083216 35 183 3.0 6.0 0.04 0.31 0.13 96 997.8
20200226082706 35 159 3.0 9.0 0.04 0.31 0.13 96 997.7
20200226082213 35 167 3.0 9.0 0.05 0.31 0.13 97 997.6
20200226081705 35 125 3.0 9.0 0.04 0.30 0.13 97 997.5
20200226081206 35 159 3.0 8.0 0.05 0.30 0.13 96 997.5
20200226080706 34 195 2.0 6.0 0.04 0.29 0.12 96 997.4
20200226080206 34 170 2.0 5.0 0.05 0.29 0.12 96 997.3
20200226075708 34 140 2.0 5.0 0.05 0.28 0.11 96 997.2
20200226075208 34 188 2.0 8.0 0.04 0.28 0.11 96 997.1
20200226074716 34 244 3.0 8.0 0.05 0.28 0.11 96 997.1
20200226074206 34 170 2.0 8.0 0.05 0.28 0.10 96 997.0
20200226073711 34 181 2.0 6.0 0.05 0.28 0.10 96 997.0
20200226073222 34 174 2.0 6.0 0.05 0.27 0.09 96 996.8
20200226072706 34 112 2.0 8.0 0.05 0.26 0.09 96 996.8
20200226072207 34 177 2.0 8.0 0.04 0.26 0.09 96 996.8
20200226071706 34 145 3.0 8.0 0.04 0.25 0.08 96 996.5
20200226071206 34 195 3.0 8.0 0.04 0.25 0.08 96 996.4
20200226070705 34 133 3.0 7.0 0.04 0.25 0.08 96 996.3
20200226070207 34 165 3.0 7.0 0.04 0.24 0.07 96 996.2
20200226065725 34 267 2.0 7.0 0.04 0.24 0.07 96 996.1
20200226065215 34 257 2.0 7.0 0.03 0.24 0.06 96 996.1
20200226064705 34 173 2.0 7.0 0.03 0.24 0.06 96 995.9
20200226064206 34 192 1.0 5.0 0.02 0.23 0.06 96 995.8
20200226063707 34 115 1.0 5.0 0.02 0.23 0.06 95 995.8
20200226063226 34 238 1.0 4.0 0.02 0.22 0.05 95 995.8
20200226062704 34 172 1.0 4.0 0.02 0.22 0.05 95 995.7
20200226062207 34 179 1.0 4.0 0.03 0.22 0.05 95 995.6
20200226061707 34 190 1.0 5.0 0.03 0.21 0.04 95 995.5
20200226061206 34 104 1.0 6.0 0.03 0.21 0.04 95 995.4
20200226060708 34 80 1.0 6.0 0.02 0.20 0.03 95 995.4
20200226060206 34 166 2.0 6.0 0.02 0.20 0.03 94 995.4
20200226055705 34 318 2.0 5.0 0.02 0.20 0.03 94 995.4
20200226055206 34 170 1.0 5.0 0.03 0.20 0.03 93 995.3
20200226054705 34 194 2.0 7.0 0.03 0.20 0.03 93 995.2
20200226054206 35 168 2.0 9.0 0.03 0.20 0.03 93 995.1
20200226053706 35 242 3.0 12.0 0.03 0.20 0.03 92 995.0
20200226053231 36 116 3.0 13.0 0.02 0.20 0.02 92 994.9
20200226052706 36 207 4.0 16.0 0.02 0.19 0.02 91 994.8
20200226052206 37 106 6.0 17.0 0.02 0.19 0.02 90 994.7
20200226051706 38 144 7.0 17.0 0.01 0.18 0.01 89 994.6
20200226051206 38 216 6.0 14.0 0.01 0.18 0.01 88 994.5
20200226050706 38 99 6.0 14.0 0.01 0.18 0.01 88 994.3
20200226050206 38 193 6.0 13.0 0.00 0.18 0.01 88 994.3
20200226045706 38 180 5.0 13.0 0.00 0.17 0.00 89 994.0
20200226045207 38 173 5.0 10.0 0.00 0.17 0.00 89 994.1
20200226044712 38 194 5.0 10.0 0.00 0.17 0.00 90 994.0
20200226044207 38 186 5.0 11.0 0.00 0.17 0.00 90 994.0
20200226043733 38 135 5.0 11.0 0.00 0.17 0.00 90 994.1
20200226043206 38 205 5.0 11.0 0.00 0.17 0.00 90 994.0
20200226042706 38 163 5.0 11.0 0.00 0.17 0.00 90 994.0
20200226042206 38 153 5.0 11.0 0.00 0.17 0.00 89 994.0
20200226041706 38 197 5.0 11.0 0.00 0.17 0.00 88 993.9
20200226041206 38 219 6.0 11.0 0.00 0.17 0.00 88 993.8
20200226040706 39 179 6.0 11.0 0.00 0.17 0.00 87 993.9
20200226040207 39 188 6.0 18.0 0.00 0.17 0.00 86 993.9
20200226035706 39 163 5.0 18.0 0.00 0.17 0.00 86 993.7
20200226035206 39 166 6.0 18.0 0.00 0.17 0.00 85 993.6
20200226034706 39 143 6.0 18.0 0.00 0.17 0.00 85 993.6
20200226034206 39 143 5.0 18.0 0.00 0.17 0.00 86 993.5
20200226033728 39 200 6.0 15.0 0.00 0.17 0.00 86 993.6
20200226033220 39 169 6.0 15.0 0.00 0.17 0.00 86 993.5
20200226032705 39 160 6.0 15.0 0.00 0.17 0.00 86 993.5
20200226032206 39 182 6.0 12.0 0.00 0.17 0.00 86 993.5
20200226031705 39 185 6.0 12.0 0.00 0.17 0.00 86 993.3
20200226031207 39 103 6.0 12.0 0.00 0.17 0.00 86 993.3
20200226030711 39 179 6.0 12.0 0.00 0.17 0.00 86 993.3
20200226030206 39 144 6.0 11.0 0.00 0.17 0.00 86 993.3
20200226025707 39 203 5.0 11.0 0.00 0.17 0.00 86 993.4
20200226025207 39 144 6.0 12.0 0.00 0.17 0.00 86 993.4
20200226024706 39 200 6.0 12.0 0.00 0.17 0.00 86 993.3
20200226024206 39 172 6.0 17.0 0.00 0.17 0.00 86 993.3
20200226023714 39 223 6.0 17.0 0.00 0.17 0.00 86 993.3
20200226023216 39 166 6.0 14.0 0.00 0.17 0.00 85 993.4
20200226022706 39 184 6.0 14.0 0.00 0.17 0.00 85 993.5
20200226022206 39 234 6.0 17.0 0.00 0.17 0.00 85 993.5
20200226021708 39 185 6.0 17.0 0.00 0.17 0.00 86 993.5
20200226021206 39 173 6.0 17.0 0.00 0.17 0.00 86 993.6
20200226020713 39 210 5.0 13.0 0.00 0.17 0.00 86 993.6
20200226020206 39 123 5.0 13.0 0.00 0.17 0.00 87 993.7
20200226015706 39 163 5.0 13.0 0.00 0.17 0.00 87 993.7
20200226015216 39 250 5.0 13.0 0.00 0.17 0.00 87 993.8
20200226014711 39 137 6.0 20.0 0.00 0.17 0.00 87 993.8
20200226014206 39 0 7.0 20.0 0.00 0.17 0.00 87 993.8
20200226013711 39 192 7.0 15.0 0.00 0.17 0.00 87 993.7
20200226013206 39 190 6.0 15.0 0.00 0.17 0.00 87 993.7
20200226012710 39 185 6.0 15.0 0.00 0.17 0.00 87 993.6
20200226012206 39 202 6.0 14.0 0.00 0.17 0.00 87 993.6
20200226011706 39 159 6.0 13.0 0.00 0.17 0.00 87 993.5
20200226011206 39 211 6.0 13.0 0.00 0.17 0.00 87 993.5
20200226010708 39 208 5.0 13.0 0.00 0.17 0.00 88 993.6
20200226010206 39 202 4.0 12.0 0.00 0.17 0.00 88 993.4
20200226005705 39 144 4.0 12.0 0.00 0.17 0.00 89 993.6
20200226005206 39 185 4.0 12.0 0.00 0.17 0.00 89 993.7
20200226004723 39 185 5.0 12.0 0.00 0.17 0.00 89 993.7
20200226004206 39 77 5.0 13.0 0.00 0.17 0.00 88 993.7
20200226003706 39 132 5.0 13.0 0.00 0.17 0.00 88 993.7
20200226003206 40 179 6.0 13.0 0.00 0.17 0.00 87 993.7
20200226002710 40 194 5.0 12.0 0.00 0.17 0.00 86 993.6
20200226002213 40 169 5.0 12.0 0.00 0.17 0.00 86 993.6
20200226001706 40 213 5.0 12.0 0.00 0.17 0.00 86 993.5
20200226001206 40 185 5.0 12.0 0.00 0.17 0.00 86 993.4
20200226000706 40 226 5.0 12.0 0.00 0.17 0.00 86 993.5
20200226000207 40 199 6.0 14.0 0.00 0.17 0.17 86 993.5
20200225235705 40 204 6.0 15.0 0.00 0.17 0.17 86 993.6
20200225235206 40 201 6.0 15.0 0.00 0.17 0.17 86 993.6
20200225234706 40 170 5.0 13.0 0.00 0.17 0.17 87 993.5
20200225234206 40 126 5.0 13.0 0.00 0.17 0.17 88 993.4
20200225233730 40 181 4.0 13.0 0.00 0.17 0.17 87 993.4
20200225233207 40 180 4.0 10.0 0.00 0.17 0.17 88 993.5
20200225232718 40 173 4.0 9.0 0.00 0.17 0.17 87 993.5
20200225232206 41 181 4.0 11.0 0.00 0.17 0.17 86 993.5
20200225231706 41 180 4.0 11.0 0.00 0.17 0.17 85 993.4
20200225231214 41 173 4.0 11.0 0.00 0.17 0.17 86 993.4
20200225230708 41 73 4.0 10.0 0.00 0.17 0.17 86 993.5
20200225230206 40 175 4.0 9.0 0.00 0.17 0.17 87 993.6
20200225225708 40 215 4.0 9.0 0.00 0.17 0.17 88 993.6
20200225225206 40 196 4.0 9.0 0.00 0.17 0.17 89 993.7
20200225224705 40 117 3.0 8.0 0.00 0.17 0.17 89 993.7
20200225224207 40 229 4.0 11.0 0.00 0.17 0.17 90 993.7
20200225223719 40 187 4.0 11.0 0.00 0.17 0.17 90 993.8
20200225223213 40 165 4.0 9.0 0.00 0.17 0.17 90 993.9
20200225222723 40 156 4.0 9.0 0.00 0.17 0.17 90 993.9
20200225222206 40 180 4.0 13.0 0.00 0.17 0.17 90 993.9
20200225221712 40 223 4.0 13.0 0.00 0.17 0.17 90 994.0
20200225221205 40 166 4.0 9.0 0.00 0.17 0.17 90 994.0
20200225220706 40 189 3.0 10.0 0.01 0.17 0.17 90 994.0
20200225220206 40 190 4.0 12.0 0.02 0.17 0.17 90 994.0
20200225215708 40 180 4.0 12.0 0.02 0.17 0.17 90 994.0
20200225215208 40 198 4.0 10.0 0.02 0.17 0.17 91 994.0
20200225214706 40 215 4.0 10.0 0.02 0.17 0.17 91 994.1
20200225214206 40 140 4.0 10.0 0.02 0.17 0.17 91 994.1
20200225213706 40 145 4.0 7.0 0.02 0.17 0.17 92 994.2
20200225213221 40 195 3.0 9.0 0.02 0.17 0.17 92 994.4
20200225212706 40 199 3.0 10.0 0.02 0.17 0.17 92 994.5
20200225212206 40 141 3.0 10.0 0.02 0.17 0.17 91 994.7
20200225211707 40 229 4.0 12.0 0.02 0.17 0.17 91 994.6
20200225211206 40 140 4.0 12.0 0.02 0.17 0.17 90 994.5
20200225210706 41 202 5.0 12.0 0.02 0.17 0.17 89 994.7
20200225210206 42 209 3.0 7.0 0.00 0.15 0.15 89 994.8
20200225205707 42 200 2.0 7.0 0.00 0.15 0.15 89 994.5
20200225205207 42 185 2.0 7.0 0.00 0.15 0.15 89 994.6
20200225204706 42 178 2.0 4.0 0.00 0.15 0.15 89 994.7
20200225204206 42 181 2.0 5.0 0.00 0.15 0.15 89 994.8
20200225203705 42 155 2.0 6.0 0.00 0.15 0.15 89 994.9
20200225203214 42 178 2.0 7.0 0.00 0.15 0.15 89 994.9
20200225202706 42 221 2.0 7.0 0.00 0.15 0.15 89 995.0
20200225202206 42 149 2.0 7.0 0.00 0.15 0.15 89 995.1
20200225201706 42 164 2.0 7.0 0.00 0.15 0.15 89 995.2
20200225201207 42 132 2.0 7.0 0.00 0.15 0.15 89 995.4
20200225200706 42 202 3.0 9.0 0.00 0.15 0.15 88 995.5
20200225200206 42 186 3.0 9.0 0.00 0.15 0.15 88 995.6
20200225195708 42 175 3.0 9.0 0.00 0.15 0.15 88 995.7
20200225195206 42 149 3.0 9.0 0.00 0.15 0.15 88 995.8
20200225194708 42 152 3.0 8.0 0.00 0.15 0.15 88 995.9
20200225194207 42 201 3.0 9.0 0.00 0.15 0.15 88 996.0
20200225193727 42 150 3.0 9.0 0.00 0.15 0.15 88 996.0
20200225193206 42 222 4.0 9.0 0.00 0.15 0.15 88 996.1
20200225192704 42 144 4.0 8.0 0.00 0.15 0.15 89 996.2
20200225192206 42 148 3.0 11.0 0.00 0.15 0.15 89 996.1
20200225191706 42 188 3.0 11.0 0.00 0.15 0.15 90 996.1
20200225191206 42 178 4.0 11.0 0.00 0.15 0.15 90 996.2
20200225190706 42 169 3.0 11.0 0.00 0.15 0.15 90 996.2
20200225190207 42 238 3.0 12.0 0.00 0.15 0.15 90 996.2
20200225185712 42 197 4.0 12.0 0.00 0.15 0.15 90 996.3
20200225185210 42 190 4.0 12.0 0.00 0.15 0.15 90 996.4
20200225184729 42 287 3.0 8.0 0.00 0.15 0.15 90 996.4
20200225184208 42 149 2.0 7.0 0.00 0.15 0.15 91 996.4
20200225183721 42 178 2.0 8.0 0.00 0.15 0.15 91 996.4
20200225183206 42 157 2.0 8.0 0.00 0.15 0.15 91 996.4
20200225182706 42 188 2.0 8.0 0.00 0.15 0.15 92 996.5
20200225182208 42 145 1.0 7.0 0.00 0.15 0.15 92 996.5
20200225181705 42 187 2.0 7.0 0.00 0.16 0.15 92 996.8
20200225181205 42 184 3.0 7.0 0.00 0.16 0.15 92 996.8
20200225180706 42 215 3.0 7.0 0.00 0.16 0.15 92 996.9
20200225180206 42 150 2.0 9.0 0.00 0.16 0.15 92 996.9
20200225175708 42 177 3.0 9.0 0.00 0.16 0.15 92 996.9
20200225175206 42 142 3.0 10.0 0.00 0.16 0.15 93 996.9
20200225174706 42 186 3.0 10.0 0.00 0.16 0.15 93 996.9
20200225174206 42 153 2.0 8.0 0.00 0.16 0.15 93 996.9
20200225173708 42 169 2.0 7.0 0.00 0.16 0.15 93 996.9
20200225173206 42 219 2.0 5.0 0.00 0.16 0.15 94 996.9
20200225172706 41 181 1.0 7.0 0.00 0.16 0.15 94 997.0
20200225172206 41 167 2.0 8.0 0.00 0.16 0.15 93 996.9
20200225171706 41 183 2.0 8.0 0.01 0.16 0.15 94 996.9
20200225171206 41 159 2.0 8.0 0.02 0.16 0.15 94 996.9
20200225170710 41 109 2.0 8.0 0.03 0.17 0.15 94 996.9
20200225170206 41 211 2.0 8.0 0.04 0.17 0.15 94 997.0
20200225165734 41 183 2.0 5.0 0.06 0.17 0.15 94 997.1
20200225165208 41 205 1.0 5.0 0.08 0.17 0.15 94 997.2
20200225164705 41 183 1.0 5.0 0.09 0.17 0.15 93 997.3
20200225164206 40 211 1.0 7.0 0.09 0.17 0.15 93 997.4
20200225163732 40 182 1.0 7.0 0.09 0.17 0.15 93 997.4
20200225163206 40 182 2.0 8.0 0.09 0.17 0.15 93 997.5
20200225162704 40 163 3.0 9.0 0.09 0.17 0.15 93 997.7
20200225162206 41 229 3.0 11.0 0.09 0.16 0.14 92 998.0
20200225161707 41 190 4.0 11.0 0.09 0.14 0.13 92 998.0
20200225161206 41 158 5.0 11.0 0.08 0.14 0.13 91 998.2
20200225160706 42 123 5.0 11.0 0.06 0.13 0.11 92 997.8
20200225160206 42 140 5.0 11.0 0.06 0.12 0.10 92 997.9
20200225155706 42 80 5.0 11.0 0.08 0.11 0.09 91 997.8
20200225155206 43 198 3.0 10.0 0.06 0.08 0.06 91 997.9
20200225154706 43 200 2.0 5.0 0.05 0.07 0.06 91 997.8
20200225154206 43 176 1.0 5.0 0.05 0.07 0.06 91 997.5
20200225153707 42 196 2.0 5.0 0.05 0.07 0.06 91 997.6
20200225153207 42 233 1.0 6.0 0.05 0.07 0.06 91 997.7
20200225152705 42 181 2.0 8.0 0.05 0.07 0.06 90 997.7
20200225152212 42 117 3.0 10.0 0.04 0.06 0.05 90 997.9
20200225151706 42 74 3.0 11.0 0.04 0.06 0.05 90 998.0
20200225151206 42 92 4.0 13.0 0.04 0.06 0.05 90 998.3
20200225150707 42 159 6.0 17.0 0.03 0.06 0.04 89 998.5
20200225150206 43 119 7.0 17.0 0.03 0.06 0.03 86 998.8
20200225145707 45 252 6.0 17.0 0.00 0.02 0.01 81 999.0
20200225145206 47 188 5.0 10.0 0.00 0.02 0.01 82 998.5
20200225144706 47 69 4.0 11.0 0.00 0.02 0.01 82 998.3
20200225144206 47 157 5.0 12.0 0.00 0.02 0.01 82 998.4
20200225143707 47 190 6.0 12.0 0.00 0.02 0.01 81 998.4
20200225143206 47 216 5.0 12.0 0.00 0.02 0.01 81 998.4
20200225142710 47 121 5.0 12.0 0.01 0.02 0.01 83 998.5
20200225142211 47 163 5.0 11.0 0.01 0.02 0.01 84 998.5
20200225141706 47 150 4.0 11.0 0.01 0.02 0.01 85 998.6
20200225141206 47 177 4.0 8.0 0.01 0.02 0.01 85 998.7
20200225140707 46 184 4.0 8.0 0.01 0.02 0.01 84 998.8
20200225140206 46 153 4.0 8.0 0.01 0.02 0.01 85 998.8
20200225135711 46 203 3.0 9.0 0.01 0.02 0.01 86 999.0
20200225135207 45 215 3.0 9.0 0.01 0.02 0.01 87 999.1
20200225134706 45 168 4.0 12.0 0.01 0.02 0.01 86 999.1